SCP
0 0 0 0 0 0 0 0 0 0 0 0 0 0 0 0 0 0 0 0 0 0 0 0 0 0 0 0 0 0 0 0 0 0 0 0 0 0 0 0 0 0 0
0 0 0 0 0 0 0 0 0 0 0 0 0 0 0 0 0 0 0 0 0 0 0 0 0 0 0 0 0 0 0 0 0 0 0 0 0 0 0 0 0 0 0
0 0 0 0 0 0 0 0 0 0 0 0 0 0 0 0 0 0 0 0 0 0 0 0 0 0 0 0 0 0 0 0 0 0 0 0 0 0 0 0 0 0 0
0 0 0 0 0 0 0 0 0 0 0 0 0 0 0 0 0 0 0 0 0 0 0 0 0 0 0 0 0 0 0 0 0 0 0 0 0 0 0 0 0 0 0
0 0 0 0 0 0 0 0 0 0 0 0 0 0 0 0 0 0 0 0 0 0 0 0 0 0 0 0 0 0 0 0 0 0 0 0 0 0 0 0 0 0 0
0 0 0 0 0 0 0 0 0 0 0 0 0 0 0 0 0 0 0 0 0 0 0 0 0 0 0 0 0 0 0 0 0 0 0 0 0 0 0 0 0 0 0
0 0 0 0 0 0 0 0 0 0 0 0 0 0 0 0 0 0 0 0 0 0 0 0 0 0 0 0 0 0 0 0 0 0 0 0 0 0 0 0 0 0 0
0 0 0 0 0 0 0 0 0 0 0 0 0 0 0 0 0 0 0 0 0 0 0 0 0 0 0 0 0 0 0 0 0 0 0 0 0 0 0 0 0 0 0
0 0 0 0 0 0 0 0 0 0 0 0 0 0 0 0 0 0 0 0 0 0 0 0 0 0 0 0 0 0 0 0 0 0 0 0 0 0 0 0 0 0 0
0 0 0 0 0 0 0 0 0 0 0 0 0 0 0 0 0 0 0 0 0 0 0 0 0 0 0 0 0 0 0 0 0 0 0 0 0 0 0 0 0 0 0
0 0 0 0 0 0 0 0 0 0 0 0 0 0 0 0 0 0 0 0 0 0 0 0 0 0 0 0 0 0 0 0 0 0 0 0 0 0 0 0 0 0 0
0 0 0 0 0 0 0 0 0 0 0 0 0 0 0 0 0 0 0 0 0 0 0 0 0 0 0 0 0 0 0 0 0 0 0 0 0 0 0 0 0 0 0
0 0 0 0 0 0 0 0 0 0 0 0 0 0 0 0 0 0 0 0 0 0 0 0 0 0 0 0 0 0 0 0 0 0 0 0 0 0 0 0 0 0 0
0 0 0 0 0 0 0 0 0 0 0 0 0 0 0 0 0 0 0 0 0 0 0 0 0 0 0 0 0 0 0 0 0 0 0 0 0 0 0 0 0 0 0
0 0 0 0 0 0 0 0 0 0 0 0 0 0 0 0 0 0 0 0 0 0 0 0 0 0 0 0 0 0 0 0 0 0 0 0 0 0 0 0 0 0 0
0 0 0 0 0 0 0 0 0 0 0 0 0 0 0 0 0 0 0 0 0 0 0 0 0 0 0 0 0 0 0 0 0 0 0 0 0 0 0 0 0 0 0
-0 0 0 0 0 0 0 0 0 0 0 0 0 0 0 0 0 0 0 0 0 0 0 0 0 0 0 0 0 0 0 0 0 0 0 0 0 0 0 0 0 0 0
0 0 0 0 0 0 0 0 0 0 0 0 0 0 0 0 0 0 0 0 0 0 0 0 0 0 0 0 0 0 0 0 0 0 0 0 0 0 0 0 0 0 0
0 0 0 0 0 0 0 0 0 0 0 0 0 0 0 0 0 0 0 0 0 0 0 0 0 0 0 0 0 0 0 0 0 0 0 0 0 0 0 0 0 0 0
0 0 0 0 0 0 0 0 0 0 0 0 0 0 0 0 0 0 0 0 0 0 0 0 0 0 0 0 0 0 0 0 0 0 0 0 0 0 0 0 0 0 0
0 0 0 0 0 0 0 0 0 0 0 0 0 0 0 0 0 0 0 0 0 0 0 0 0 0 0 0 0 0 0 0 0 0 0 0 0 0 0 0 0 0 0
0 0 0 0 0 0 0 0 0 0 0 0 0 0 0 0 0 0 0 0 0 0 0 0 0 0 0 0 0 0 0 0 0 0 0 0 0 0 0 0 0 0 0
0 0 0 0 0 0 0 0 0 0 0 0 0 0 0 0 0 0 0 0 0 0 0 0 0 0 0 0 0 0 0 0 0 0 0 0 0 0 0 0 0 0 0
0 0 0 0 0 0 0 0 0 0 0 0 0 0 0 0 0 0 0 0 0 0 0 0 0 0 0 0 0 0 0 0 0 0 0 0 0 0 0 0 0 0 0
0 0 0 0 0 0 0 0 0 0 0 0 0 0 0 0 0 0 0 0 0 0 0 0 0 0 0 0 0 0 0 0 0 0 0 0 0 0 0 0 0 0 0
0 0 0 0 0 0 0 0 0 0 0 0 0 0 0 0 0 0 0 0 0 0 0 0 0 0 0 0 0 0 0 0 0 0 0 0 0 0 0 0 0 0 0
Wind_Speed_500mb
45 51 52 54 54 60 68 74 78 74 72 74 70 74 79 87 92 91 90 85 83 82 82 80 79 77 76 76 72 68 64 60 58 54 48 43 42 41 40 39 39 41 42
40 46 50 53 52 62 64 61 60 65 69 73 63 65 68 74 80 87 92 91 85 86 86 84 84 81 81 78 76 72 68 64 61 59 54 51 48 45 44 44 44 43 43
24 33 41 47 52 58 55 58 58 62 69 70 73 66 67 68 66 73 80 84 87 88 91 89 83 85 86 83 80 76 71 67 64 59 56 52 51 49 47 45 43 41 40
13 21 28 33 42 51 57 55 53 56 64 69 66 69 71 75 77 74 75 82 83 83 83 86 89 85 87 87 85 80 74 70 65 60 57 55 52 49 47 43 39 37 39
1 9 14 19 32 42 48 53 55 63 61 58 65 65 67 68 69 71 72 75 77 81 86 86 85 87 87 87 82 78 75 72 67 64 61 58 55 51 47 39 36 38 41
17 11 2 10 16 36 37 43 46 49 51 55 53 58 60 68 69 66 70 69 70 76 81 81 86 82 82 83 82 76 72 72 71 67 62 58 52 47 41 37 37 43 44
25 23 15 6 7 16 30 42 41 41 45 51 51 55 64 70 72 68 69 67 65 67 73 76 80 81 80 82 82 76 73 69 64 57 58 54 50 46 41 44 47 46 39
22 20 18 14 9 2 9 19 31 41 42 46 51 53 56 57 57 60 61 63 63 66 70 73 75 78 79 81 81 79 76 71 69 66 59 53 45 46 52 47 41 39 33
25 22 19 16 13 11 5 5 14 22 28 37 41 46 51 54 55 56 56 61 63 65 65 66 70 73 74 80 83 81 80 76 65 57 49 47 54 52 45 39 37 31 27
28 26 22 17 13 10 8 6 1 7 16 24 32 39 44 47 50 54 56 59 61 65 66 64 64 66 71 78 83 86 77 68 60 57 55 53 47 40 39 34 29 29 27
27 24 20 17 14 11 8 5 3 2 1 7 14 22 30 37 42 46 50 53 55 56 58 60 59 59 61 71 71 68 62 58 57 55 48 43 40 37 37 30 28 27 27
26 24 21 17 14 12 10 8 6 5 4 3 3 7 12 18 21 28 32 32 36 40 46 49 50 50 53 58 58 56 55 50 51 48 47 45 41 40 33 30 29 31 28
22 21 21 20 18 14 11 9 8 7 8 9 8 7 7 12 19 26 28 27 29 32 33 34 40 49 52 54 56 54 51 50 49 48 48 43 34 28 32 33 30 25 23
24 20 18 18 16 15 15 12 8 6 8 10 12 13 15 16 20 24 21 20 21 24 28 35 43 48 51 52 51 48 48 48 46 45 40 34 35 37 30 27 26 24 24
20 20 19 17 16 14 12 11 12 9 8 8 10 13 18 23 28 28 27 26 26 28 32 36 42 45 47 48 48 46 45 41 40 37 36 36 35 31 28 25 24 25 28
22 21 19 18 16 14 13 10 9 10 11 10 10 10 13 18 25 33 37 32 28 26 32 40 45 48 49 50 51 49 43 41 39 37 35 33 31 31 27 25 21 18 18
23 23 23 20 18 17 14 12 8 7 8 9 10 11 11 13 17 24 31 37 29 31 32 35 41 45 47 49 50 50 48 42 39 38 36 34 30 29 28 23 16 13 11
26 24 26 25 22 17 18 14 11 10 7 8 8 10 11 12 13 14 20 29 32 41 34 35 37 39 40 41 42 43 43 43 41 40 38 33 30 27 24 20 16 14 14
29 26 24 26 28 24 19 20 18 13 11 10 9 6 11 17 13 15 19 38 41 36 32 29 30 35 36 39 39 38 38 37 35 35 34 31 28 24 21 18 15 15 17
30 30 30 27 26 28 27 22 21 20 17 12 11 13 12 17 20 21 24 29 31 27 29 31 32 33 34 36 36 36 37 38 36 34 31 27 23 19 16 15 16 19 22
34 32 33 30 27 26 29 28 24 24 22 19 15 14 16 20 22 20 21 19 17 21 25 30 29 30 34 37 38 37 35 33 31 28 24 20 17 15 17 19 22 25 27
32 31 31 30 28 25 25 28 29 27 25 23 21 20 21 22 24 28 29 21 17 20 24 26 28 30 33 35 36 35 33 28 22 18 17 20 21 22 23 24 27 28 28
29 28 28 28 28 26 23 24 28 30 30 30 28 25 26 25 24 26 30 33 33 30 29 29 31 33 35 35 33 33 33 32 26 25 27 25 26 27 28 28 28 26 23
31 29 29 29 31 31 29 27 26 27 33 33 32 34 33 31 29 28 31 32 34 36 39 40 40 40 38 36 33 29 26 24 24 27 28 30 30 31 30 27 24 22 20
29 28 28 28 30 32 35 35 34 32 31 31 35 36 36 38 38 36 35 37 39 41 42 45 44 40 39 38 34 30 29 30 30 31 31 31 31 30 27 26 23 20 19
23 24 24 25 27 29 30 31 32 34 37 36 34 34 38 43 43 43 44 44 44 45 46 47 47 46 45 44 41 39 37 36 36 35 34 33 31 28 27 25 23 21 19
Wind_Direction_500mb
196 207 215 221 221 224 233 238 242 243 240 238 237 238 239 238 237 235 236 239 239 237 240 240 239 240 241 242 244 244 243 243 244 248 248 248 248 251 255 260 265 271 273
199 207 213 218 226 232 233 238 238 238 240 243 240 238 240 241 240 238 236 238 240 239 237 240 241 239 239 241 243 244 244 245 244 247 250 248 248 249 252 258 264 268 273
218 221 216 216 223 232 236 234 237 239 241 239 243 237 237 234 233 234 236 238 239 238 239 239 241 241 240 240 241 241 242 242 243 243 246 247 247 249 254 259 264 270 275
238 230 229 226 220 224 234 234 230 238 238 240 237 232 234 239 240 240 239 238 236 237 238 239 241 243 242 241 239 240 239 239 240 241 242 243 247 250 253 259 268 273 279
312 227 225 232 220 218 226 232 231 229 231 238 239 239 237 238 239 240 243 245 241 241 242 239 239 243 243 244 241 240 239 238 238 238 238 239 242 246 255 263 267 279 284
73 81 161 222 231 226 224 225 225 227 228 229 229 236 239 236 237 238 240 245 244 243 244 244 244 240 243 240 239 238 240 241 239 237 238 241 245 248 249 255 269 280 281
67 68 65 80 219 228 233 238 237 232 231 230 232 231 232 234 234 237 240 242 245 245 245 244 244 244 239 234 232 233 233 233 235 243 242 243 241 240 243 260 269 270 273
60 61 62 59 60 135 215 228 234 236 234 230 231 232 235 237 239 241 241 242 243 245 245 246 246 244 241 236 230 226 226 225 227 231 233 236 238 244 258 256 254 257 264
51 48 49 51 50 56 78 188 223 227 232 232 232 233 236 237 238 240 240 241 242 245 246 245 243 243 240 234 225 220 225 227 229 230 233 239 248 249 246 247 250 251 252
42 36 30 25 26 26 39 53 64 222 226 226 229 233 235 235 233 235 236 237 239 239 241 241 242 239 235 230 227 227 224 224 226 230 234 238 239 237 241 241 235 244 251
31 27 20 14 12 7 356 348 357 18 217 222 225 227 230 231 228 228 229 233 236 239 239 239 237 233 229 225 225 224 226 227 226 229 233 232 232 232 238 236 236 240 244
24 18 14 11 9 359 348 334 307 285 269 254 234 223 220 217 211 205 219 231 235 236 239 239 235 224 215 213 215 219 221 222 223 222 222 224 226 233 237 237 234 240 245
11 8 6 8 4 359 353 336 318 296 269 258 256 249 229 199 186 199 219 229 228 237 237 231 217 207 204 207 212 214 216 215 215 215 219 220 220 215 213 220 230 231 235
355 351 355 354 356 358 351 346 332 305 284 265 246 236 229 220 204 206 208 212 219 220 224 215 206 203 203 206 208 208 211 214 214 214 212 204 203 207 210 211 220 225 232
329 336 336 338 345 342 344 342 329 316 291 271 262 248 232 224 222 218 219 218 212 208 200 197 195 198 198 198 198 202 206 204 203 201 197 194 194 198 201 199 212 232 246
327 313 318 317 320 324 328 324 324 315 294 276 266 258 246 235 223 218 215 220 223 220 206 200 198 200 202 200 197 198 202 205 205 199 196 196 193 193 206 219 234 239 232
337 317 298 298 300 303 308 310 315 310 301 279 262 251 241 233 223 218 212 207 212 212 211 207 207 205 206 206 205 204 202 202 204 202 200 200 207 210 212 209 201 200 208
331 325 308 288 287 286 282 290 294 288 291 286 263 247 231 205 187 186 202 190 195 210 219 209 203 202 198 197 193 194 194 195 199 203 205 206 201 195 192 190 195 208 225
312 307 309 302 283 277 272 267 271 275 275 261 248 230 192 170 165 168 179 187 192 197 204 207 205 200 192 191 191 194 195 190 187 186 181 180 180 184 191 202 220 243 260
302 300 297 294 289 274 268 261 254 257 260 253 248 231 198 188 188 183 188 191 200 215 211 203 200 196 190 184 178 177 177 175 173 173 176 179 186 195 210 233 251 264 270
291 287 286 287 282 275 265 261 252 244 244 247 231 230 219 205 203 202 203 208 205 203 190 179 177 178 176 174 172 171 171 171 172 177 183 194 211 227 244 257 267 273 274
289 282 277 278 276 271 264 256 254 248 239 233 235 226 222 215 212 208 209 206 206 188 177 173 173 169 170 170 170 172 174 176 180 192 215 232 242 254 264 271 275 275 274
289 283 276 273 269 263 261 256 250 248 243 237 228 222 227 226 217 213 213 214 212 206 197 192 191 190 189 187 188 192 199 201 202 220 234 246 256 265 270 272 270 269 268
288 279 272 265 260 260 259 258 256 249 244 240 235 228 224 225 223 216 213 212 214 213 212 210 208 209 210 207 206 208 214 221 229 240 249 255 260 262 263 261 258 255 251
291 285 276 268 263 260 257 255 252 252 250 245 238 233 226 225 225 223 220 217 215 214 213 219 226 222 221 225 232 239 246 247 246 248 250 251 251 250 247 246 242 235 241
303 291 283 275 270 266 264 261 256 249 245 243 241 238 234 229 225 221 222 220 217 217 219 219 219 222 229 234 238 243 245 246 247 246 245 243 242 240 235 227 225 231 240
Wind_Speed_850mb
45 51 52 54 54 60 68 74 78 74 72 74 70 74 79 87 92 91 90 85 83 82 82 80 79 77 76 76 72 68 64 60 58 54 48 43 42 41 40 39 39 41 42
40 46 50 53 52 62 64 61 60 65 69 73 63 65 68 74 80 87 92 91 85 86 86 84 84 81 81 78 76 72 68 64 61 59 54 51 48 45 44 44 44 43 43
24 33 41 47 52 58 55 58 58 62 69 70 73 66 67 68 66 73 80 84 87 88 91 89 83 85 86 83 80 76 71 67 64 59 56 52 51 49 47 45 43 41 40
13 21 28 33 42 51 57 55 53 56 64 69 66 69 71 75 77 74 75 82 83 83 83 86 89 85 87 87 85 80 74 70 65 60 57 55 52 49 47 43 39 37 39
1 9 14 19 32 42 48 53 55 63 61 58 65 65 67 68 69 71 72 75 77 81 86 86 85 87 87 87 82 78 75 72 67 64 61 58 55 51 47 39 36 38 41
17 11 2 10 16 36 37 43 46 49 51 55 53 58 60 68 69 66 70 69 70 76 81 81 86 82 82 83 82 76 72 72 71 67 62 58 52 47 41 37 37 43 44
25 23 15 6 7 16 30 42 41 41 45 51 51 55 64 70 72 68 69 67 65 67 73 76 80 81 80 82 82 76 73 69 64 57 58 54 50 46 41 44 47 46 39
22 20 18 14 9 2 9 19 31 41 42 46 51 53 56 57 57 60 61 63 63 66 70 73 75 78 79 81 81 79 76 71 69 66 59 53 45 46 52 47 41 39 33
25 22 19 16 13 11 5 5 14 22 28 37 41 46 51 54 55 56 56 61 63 65 65 66 70 73 74 80 83 81 80 76 65 57 49 47 54 52 45 39 37 31 27
28 26 22 17 13 10 8 6 1 7 16 24 32 39 44 47 50 54 56 59 61 65 66 64 64 66 71 78 83 86 77 68 60 57 55 53 47 40 39 34 29 29 27
27 24 20 17 14 11 8 5 3 2 1 7 14 22 30 37 42 46 50 53 55 56 58 60 59 59 61 71 71 68 62 58 57 55 48 43 40 37 37 30 28 27 27
26 24 21 17 14 12 10 8 6 5 4 3 3 7 12 18 21 28 32 32 36 40 46 49 50 50 53 58 58 56 55 50 51 48 47 45 41 40 33 30 29 31 28
22 21 21 20 18 14 11 9 8 7 8 9 8 7 7 12 19 26 28 27 29 32 33 34 40 49 52 54 56 54 51 50 49 48 48 43 34 28 32 33 30 25 23
24 20 18 18 16 15 15 12 8 6 8 10 12 13 15 16 20 24 21 20 21 24 28 35 43 48 51 52 51 48 48 48 46 45 40 34 35 37 30 27 26 24 24
20 20 19 17 16 14 12 11 12 9 8 8 10 13 18 23 28 28 27 26 26 28 32 36 42 45 47 48 48 46 45 41 40 37 36 36 35 31 28 25 24 25 28
22 21 19 18 16 14 13 10 9 10 11 10 10 10 13 18 25 33 37 32 28 26 32 40 45 48 49 50 51 49 43 41 39 37 35 33 31 31 27 25 21 18 18
23 23 23 20 18 17 14 12 8 7 8 9 10 11 11 13 17 24 31 37 29 31 32 35 41 45 47 49 50 50 48 42 39 38 36 34 30 29 28 23 16 13 11
26 24 26 25 22 17 18 14 11 10 7 8 8 10 11 12 13 14 20 29 32 41 34 35 37 39 40 41 42 43 43 43 41 40 38 33 30 27 24 20 16 14 14
29 26 24 26 28 24 19 20 18 13 11 10 9 6 11 17 13 15 19 38 41 36 32 29 30 35 36 39 39 38 38 37 35 35 34 31 28 24 21 18 15 15 17
30 30 30 27 26 28 27 22 21 20 17 12 11 13 12 17 20 21 24 29 31 27 29 31 32 33 34 36 36 36 37 38 36 34 31 27 23 19 16 15 16 19 22
34 32 33 30 27 26 29 28 24 24 22 19 15 14 16 20 22 20 21 19 17 21 25 30 29 30 34 37 38 37 35 33 31 28 24 20 17 15 17 19 22 25 27
32 31 31 30 28 25 25 28 29 27 25 23 21 20 21 22 24 28 29 21 17 20 24 26 28 30 33 35 36 35 33 28 22 18 17 20 21 22 23 24 27 28 28
29 28 28 28 28 26 23 24 28 30 30 30 28 25 26 25 24 26 30 33 33 30 29 29 31 33 35 35 33 33 33 32 26 25 27 25 26 27 28 28 28 26 23
31 29 29 29 31 31 29 27 26 27 33 33 32 34 33 31 29 28 31 32 34 36 39 40 40 40 38 36 33 29 26 24 24 27 28 30 30 31 30 27 24 22 20
29 28 28 28 30 32 35 35 34 32 31 31 35 36 36 38 38 36 35 37 39 41 42 45 44 40 39 38 34 30 29 30 30 31 31 31 31 30 27 26 23 20 19
23 24 24 25 27 29 30 31 32 34 37 36 34 34 38 43 43 43 44 44 44 45 46 47 47 46 45 44 41 39 37 36 36 35 34 33 31 28 27 25 23 21 19
Wind_Direction_850mb
196 207 215 221 221 224 233 238 242 243 240 238 237 238 239 238 237 235 236 239 239 237 240 240 239 240 241 242 244 244 243 243 244 248 248 248 248 251 255 260 265 271 273
199 207 213 218 226 232 233 238 238 238 240 243 240 238 240 241 240 238 236 238 240 239 237 240 241 239 239 241 243 244 244 245 244 247 250 248 248 249 252 258 264 268 273
218 221 216 216 223 232 236 234 237 239 241 239 243 237 237 234 233 234 236 238 239 238 239 239 241 241 240 240 241 241 242 242 243 243 246 247 247 249 254 259 264 270 275
238 230 229 226 220 224 234 234 230 238 238 240 237 232 234 239 240 240 239 238 236 237 238 239 241 243 242 241 239 240 239 239 240 241 242 243 247 250 253 259 268 273 279
312 227 225 232 220 218 226 232 231 229 231 238 239 239 237 238 239 240 243 245 241 241 242 239 239 243 243 244 241 240 239 238 238 238 238 239 242 246 255 263 267 279 284
73 81 161 222 231 226 224 225 225 227 228 229 229 236 239 236 237 238 240 245 244 243 244 244 244 240 243 240 239 238 240 241 239 237 238 241 245 248 249 255 269 280 281
67 68 65 80 219 228 233 238 237 232 231 230 232 231 232 234 234 237 240 242 245 245 245 244 244 244 239 234 232 233 233 233 235 243 242 243 241 240 243 260 269 270 273
60 61 62 59 60 135 215 228 234 236 234 230 231 232 235 237 239 241 241 242 243 245 245 246 246 244 241 236 230 226 226 225 227 231 233 236 238 244 258 256 254 257 264
51 48 49 51 50 56 78 188 223 227 232 232 232 233 236 237 238 240 240 241 242 245 246 245 243 243 240 234 225 220 225 227 229 230 233 239 248 249 246 247 250 251 252
42 36 30 25 26 26 39 53 64 222 226 226 229 233 235 235 233 235 236 237 239 239 241 241 242 239 235 230 227 227 224 224 226 230 234 238 239 237 241 241 235 244 251
31 27 20 14 12 7 356 348 357 18 217 222 225 227 230 231 228 228 229 233 236 239 239 239 237 233 229 225 225 224 226 227 226 229 233 232 232 232 238 236 236 240 244
24 18 14 11 9 359 348 334 307 285 269 254 234 223 220 217 211 205 219 231 235 236 239 239 235 224 215 213 215 219 221 222 223 222 222 224 226 233 237 237 234 240 245
11 8 6 8 4 359 353 336 318 296 269 258 256 249 229 199 186 199 219 229 228 237 237 231 217 207 204 207 212 214 216 215 215 215 219 220 220 215 213 220 230 231 235
355 351 355 354 356 358 351 346 332 305 284 265 246 236 229 220 204 206 208 212 219 220 224 215 206 203 203 206 208 208 211 214 214 214 212 204 203 207 210 211 220 225 232
329 336 336 338 345 342 344 342 329 316 291 271 262 248 232 224 222 218 219 218 212 208 200 197 195 198 198 198 198 202 206 204 203 201 197 194 194 198 201 199 212 232 246
327 313 318 317 320 324 328 324 324 315 294 276 266 258 246 235 223 218 215 220 223 220 206 200 198 200 202 200 197 198 202 205 205 199 196 196 193 193 206 219 234 239 232
337 317 298 298 300 303 308 310 315 310 301 279 262 251 241 233 223 218 212 207 212 212 211 207 207 205 206 206 205 204 202 202 204 202 200 200 207 210 212 209 201 200 208
331 325 308 288 287 286 282 290 294 288 291 286 263 247 231 205 187 186 202 190 195 210 219 209 203 202 198 197 193 194 194 195 199 203 205 206 201 195 192 190 195 208 225
312 307 309 302 283 277 272 267 271 275 275 261 248 230 192 170 165 168 179 187 192 197 204 207 205 200 192 191 191 194 195 190 187 186 181 180 180 184 191 202 220 243 260
302 300 297 294 289 274 268 261 254 257 260 253 248 231 198 188 188 183 188 191 200 215 211 203 200 196 190 184 178 177 177 175 173 173 176 179 186 195 210 233 251 264 270
291 287 286 287 282 275 265 261 252 244 244 247 231 230 219 205 203 202 203 208 205 203 190 179 177 178 176 174 172 171 171 171 172 177 183 194 211 227 244 257 267 273 274
289 282 277 278 276 271 264 256 254 248 239 233 235 226 222 215 212 208 209 206 206 188 177 173 173 169 170 170 170 172 174 176 180 192 215 232 242 254 264 271 275 275 274
289 283 276 273 269 263 261 256 250 248 243 237 228 222 227 226 217 213 213 214 212 206 197 192 191 190 189 187 188 192 199 201 202 220 234 246 256 265 270 272 270 269 268
288 279 272 265 260 260 259 258 256 249 244 240 235 228 224 225 223 216 213 212 214 213 212 210 208 209 210 207 206 208 214 221 229 240 249 255 260 262 263 261 258 255 251
291 285 276 268 263 260 257 255 252 252 250 245 238 233 226 225 225 223 220 217 215 214 213 219 226 222 221 225 232 239 246 247 246 248 250 251 251 250 247 246 242 235 241
303 291 283 275 270 266 264 261 256 249 245 243 241 238 234 229 225 221 222 220 217 217 219 219 219 222 229 234 238 243 245 246 247 246 245 243 242 240 235 227 225 231 240